Location: ????????
(55.0808°N, 38.5463°E)
Time: 01:41:47
(UTC+00:00)

Nimbus 3 Rocket - Pass Details

Date: 19 September 2024
Orbit: 1072 x 1131 km, 99.9° (Epoch: 03 October)

Event Time Altitude Azimuth Distance (km) Brightness Sun altitude
Rises 01:17:16 0° 22° (NNE) 3,934 9.0 -15.8°
Reaches altitude 10° 01:21:58 10° 353° (N) 2,959 7.7 -15.2°
Maximum altitude 01:23:57 11° 335° (NNW) 2,840 7.4 -14.9°
Drops below altitude 10° 01:25:55 10° 318° (NW) 2,945 7.3 -14.7°
Enters shadow 01:29:06 - 295° (WNW) 3,511 7.5 -14.2°
